Date String (YYYY-MM-DD hh:mm:ss) UTC,Instrument flags,absolute air pressure of the measurement (hPa),sample flow rate (lpm),inlet stack bypass flow (lpm),air temperature of the measurement (°C),ambient temperature measured by the external sensor (°C),aerosol sample conditioner tube jacket temperature (°C),OPC LED temperature (°C),internal box temperature (°C),relative humidity of the measurement (%),span deviation,mass concentration of particles derived from Lorenz-Mie calculation of OPC scattering (μg/m³),mass concentration of particles derived from Lorenz-Mie calculation of OPC scattering (μg/m³),mass concentration of particles derived from Lorenz-Mie calculation of OPC scattering (μg/m³)
DateTimeUTC,F1_M11,P_M11,Q1_M11,Q2_M11,T1_M11,T2_M11,T3_M11,T4_M11,T5_M11,U1_M11,ZSPAN_M11,X2_M11,X0_M11,X1_M11
2023-12-20 14:00:00,SystemResetWarning,0828.8,5.00,000.00,023.4,022.4,000.0,031.8,024.8,13.4,0000.0,0001.23,0002.28,0000.93
2023-12-20 14:01:00,SystemResetWarning,0828.9,5.00,000.00,023.4,022.4,000.0,031.8,024.9,13.2,0000.0,0001.26,0002.41,0000.93
2023-12-20 14:02:00,SystemResetWarning,0828.8,5.00,000.00,023.4,022.4,000.0,031.8,024.8,13.2,0000.0,0001.31,0002.53,0000.93
2023-12-20 14:03:00,SystemResetWarning,0828.8,5.00,000.00,023.4,022.4,000.0,031.8,024.8,13.1,0000.0,0001.36,0002.61,0000.94
2023-12-20 14:04:00,SystemResetWarning,0828.9,5.00,000.00,023.4,022.4,000.0,031.8,024.8,13.1,0000.0,0001.35,0002.53,0000.94
2023-12-20 14:05:00,SystemResetWarning,0828.9,5.00,000.00,023.4,022.4,000.0,031.8,024.8,13.1,0000.0,0001.35,0002.48,0000.94
2023-12-20 14:06:00,SystemResetWarning,0828.9,5.00,000.00,023.4,022.4,000.0,031.8,024.8,13.4,0000.0,0001.35,0002.58,0000.95
2023-12-20 14:07:00,SystemResetWarning,0829.0,5.00,000.00,023.4,022.4,000.0,031.7,024.8,13.5,0000.0,0001.33,0002.86,0000.94
2023-12-20 14:08:00,SystemResetWarning,0829.0,5.00,000.00,023.4,022.4,000.0,031.7,024.8,13.5,0000.0,0001.32,0002.72,0000.95
2023-12-20 14:09:00,SystemResetWarning,0828.9,5.00,000.00,023.4,022.4,000.0,031.7,024.8,13.3,0000.0,0001.36,0002.78,0000.95
2023-12-20 14:10:00,SystemResetWarning,0828.9,5.00,000.00,023.4,022.4,000.0,031.7,024.8,13.2,0000.0,0001.35,0002.56,0000.96
2023-12-20 14:11:00,SystemResetWarning,0828.9,5.00,000.00,023.4,022.4,000.0,031.7,024.8,13.2,0000.0,0001.31,0002.42,0000.96
2023-12-20 14:12:00,SystemResetWarning,0828.9,5.00,000.00,023.4,022.4,000.0,031.7,024.8,13.0,0000.0,0001.32,0002.48,0000.97
2023-12-20 14:13:00,SystemResetWarning,0828.9,5.00,000.00,023.4,022.4,000.0,031.7,024.8,13.1,0000.0,0001.30,0002.50,0000.97
2023-12-20 14:14:00,SystemResetWarning,0828.9,5.00,000.00,023.4,022.4,000.0,031.7,024.8,13.1,0000.0,0001.28,0002.50,0000.96
2023-12-20 14:15:00,SystemResetWarning,0828.9,5.00,000.00,023.4,022.4,000.0,031.7,024.8,13.1,0000.0,0001.27,0002.67,0000.95
2023-12-20 14:16:00,SystemResetWarning,0829.0,5.00,000.00,023.4,022.4,000.0,031.7,024.8,13.3,0000.0,0001.27,0002.73,0000.94
2023-12-20 14:17:00,SystemResetWarning,0829.0,5.00,000.00,023.4,022.4,000.0,031.7,024.8,13.2,0000.0,0001.30,0002.88,0000.94
2023-12-20 14:18:00,SystemResetWarning,0829.0,5.00,000.00,023.4,022.4,000.0,031.7,024.8,13.2,0000.0,0001.29,0002.47,0000.94
2023-12-20 14:19:00,SystemResetWarning,0829.0,5.00,000.00,023.4,022.4,000.0,031.7,024.8,13.3,0000.0,0001.28,0002.55,0000.92
2023-12-20 14:20:00,SystemResetWarning,0829.0,4.99,000.00,023.4,022.4,000.0,031.7,024.8,13.2,0000.0,0001.24,0002.50,0000.91
2023-12-20 14:21:00,SystemResetWarning,0829.0,5.01,000.00,023.4,022.3,000.0,031.7,024.8,13.1,0000.0,0001.27,0002.53,0000.91
2023-12-20 14:22:00,SystemResetWarning,0829.1,5.02,000.00,023.4,022.4,000.0,031.7,024.8,13.2,0000.0,0001.27,0002.51,0000.91
2023-12-20 14:23:00,SystemResetWarning,0829.1,5.00,000.00,023.4,022.4,000.0,031.7,024.8,13.2,0000.0,0001.24,0002.40,0000.90
2023-12-20 14:24:00,SystemResetWarning,0829.1,4.99,000.00,023.4,022.4,000.0,031.7,024.8,13.0,0000.0,0001.25,0002.29,0000.90
2023-12-20 14:25:00,SystemResetWarning,0829.1,4.99,000.00,023.4,022.4,000.0,031.7,024.8,13.1,0000.0,0001.24,0002.26,0000.90
2023-12-20 14:26:00,SystemResetWarning,0829.1,5.00,000.00,023.4,022.4,000.0,031.7,024.8,13.3,0000.0,0001.22,0002.09,0000.91
2023-12-20 14:27:00,SystemResetWarning,0829.1,5.00,000.00,023.4,022.4,000.0,031.7,024.8,13.0,0000.0,0001.24,0002.21,0000.90
2023-12-20 14:28:00,SystemResetWarning,0829.1,5.00,000.00,023.4,022.4,000.0,031.7,024.8,13.1,0000.0,0001.22,0002.33,0000.90
2023-12-20 14:29:00,SystemResetWarning,0829.1,5.01,000.00,023.4,022.3,000.0,031.7,024.8,13.0,0000.0,0001.22,0002.49,0000.92
2023-12-20 14:30:00,SystemResetWarning,0829.1,5.00,000.00,023.4,022.3,000.0,031.7,024.8,13.0,0000.0,0001.22,0002.44,0000.93
2023-12-20 14:31:00,SystemResetWarning,0829.1,5.00,000.00,023.4,022.3,000.0,031.7,024.8,13.1,0000.0,0001.22,0002.48,0000.94
2023-12-20 14:32:00,SystemResetWarning,0829.1,5.00,000.00,023.3,022.3,000.0,031.7,024.8,13.2,0000.0,0001.20,0002.52,0000.94
2023-12-20 14:33:00,SystemResetWarning,0829.1,5.00,000.00,023.3,022.3,000.0,031.7,024.8,13.2,0000.0,0001.22,0002.64,0000.94
2023-12-20 14:34:00,SystemResetWarning,0829.2,5.00,000.00,023.3,022.3,000.0,031.7,024.7,13.3,0000.0,0001.24,0002.67,0000.94
2023-12-20 14:35:00,SystemResetWarning,0829.2,5.00,000.00,023.3,022.3,000.0,031.7,024.7,13.6,0000.0,0001.25,0002.63,0000.95
2023-12-20 14:36:00,SystemResetWarning,0829.2,5.00,000.00,023.3,022.3,000.0,031.7,024.7,13.3,0000.0,0001.23,0002.56,0000.94
2023-12-20 14:37:00,SystemResetWarning,0829.2,5.00,000.00,023.3,022.3,000.0,031.7,024.7,13.2,0000.0,0001.23,0002.55,0000.95
2023-12-20 14:38:00,SystemResetWarning,0829.2,5.00,000.00,023.3,022.3,000.0,031.7,024.7,13.3,0000.0,0001.22,0002.41,0000.96
2023-12-20 14:39:00,SystemResetWarning,0829.2,5.00,000.00,023.3,022.3,000.0,031.7,024.7,13.4,0000.0,0001.21,0002.56,0000.96
2023-12-20 14:40:00,SystemResetWarning,0829.2,5.00,000.00,023.3,022.3,000.0,031.7,024.7,13.4,0000.0,0001.23,0002.39,0000.95
2023-12-20 14:41:00,SystemResetWarning,0829.2,5.00,000.00,023.3,022.3,000.0,031.7,024.7,13.4,0000.0,0001.23,0002.44,0000.95
2023-12-20 14:42:00,SystemResetWarning,0829.2,5.00,000.00,023.3,022.3,000.0,031.6,024.7,13.0,0000.0,0001.23,0002.35,0000.94
2023-12-20 14:43:00,SystemResetWarning,0829.2,5.00,000.00,023.3,022.3,000.0,031.6,024.7,13.0,0000.0,0001.24,0002.31,0000.94
2023-12-20 14:44:00,SystemResetWarning,0829.2,5.00,000.00,023.3,022.3,000.0,031.6,024.7,13.1,0000.0,0001.22,0002.56,0000.93
2023-12-20 14:45:00,SystemResetWarning,0829.2,5.00,000.00,023.3,022.3,000.0,031.6,024.7,13.1,0000.0,0001.26,0003.62,0000.94
2023-12-20 14:46:00,SystemResetWarning,0829.2,5.01,000.00,023.3,022.3,000.0,031.6,024.7,13.1,0000.0,0001.25,0003.64,0000.94
2023-12-20 14:47:00,SystemResetWarning,0829.2,5.01,000.00,023.3,022.3,000.0,031.6,024.7,13.1,0000.0,0001.26,0003.69,0000.94
2023-12-20 14:48:00,SystemResetWarning,0829.2,5.00,000.00,023.3,022.3,000.0,031.6,024.7,13.1,0000.0,0001.28,0003.73,0000.93
2023-12-20 14:49:00,SystemResetWarning,0829.2,5.00,000.00,023.3,022.3,000.0,031.6,024.7,13.0,0000.0,0001.29,0003.74,0000.93
2023-12-20 14:50:00,SystemResetWarning,0829.2,4.99,000.00,023.3,022.3,000.0,031.6,024.7,12.9,0000.0,0001.31,0003.47,0000.93
2023-12-20 14:51:00,SystemResetWarning,0829.2,5.00,000.00,023.3,022.3,000.0,031.6,024.7,12.8,0000.0,0001.28,0003.37,0000.92
2023-12-20 14:52:00,SystemResetWarning,0829.2,5.00,000.00,023.3,022.3,000.0,031.6,024.7,12.9,0000.0,0001.30,0003.34,0000.93
2023-12-20 14:53:00,SystemResetWarning,0829.2,5.01,000.00,023.3,022.3,000.0,031.6,024.7,13.0,0000.0,0001.34,0003.46,0000.94
2023-12-20 14:54:00,SystemResetWarning,0829.2,5.00,000.00,023.3,022.3,000.0,031.6,024.7,13.1,0000.0,0001.38,0003.56,0000.94
2023-12-20 14:55:00,SystemResetWarning,0829.2,5.00,000.00,023.3,022.3,000.0,031.6,024.7,13.3,0000.0,0001.40,0003.30,0000.94
2023-12-20 14:56:00,SystemResetWarning,0829.2,5.00,000.00,023.3,022.3,000.0,031.6,024.7,13.1,0000.0,0001.36,0002.42,0000.94
2023-12-20 14:57:00,SystemResetWarning,0829.2,5.01,000.00,023.3,022.3,000.0,031.6,024.7,13.0,0000.0,0001.35,0002.90,0000.94
2023-12-20 14:58:00,SystemResetWarning,0829.2,5.01,000.00,023.3,022.3,000.0,031.6,024.7,12.9,0000.0,0001.34,0002.88,0000.94
2023-12-20 14:59:00,SystemResetWarning,0829.2,5.00,000.00,023.3,022.3,000.0,031.6,024.7,12.8,0000.0,0001.33,0003.31,0000.95
